Flag for Canada Weather past 2 weeks in Moncton, New Brunswick, Canada

Now
28 °F

Overcast.


Feels Like: 18 °F
Forecast: 26 / 34 °F
Wind: 12 mph from North

Location: Moncton

Current Time: Dec 20, 2014 at 5:59:48 AM

Latest Report: Dec 20, 2014 at 5:00 AM


Visibility: 15 mi

Pressure: 30.16 "Hg

Humidity: 80%

Dew point: 23 °F

Location of MonctonLocation

Historic Weather in Moncton — Graph

°F

Moncton temperature yesterday

Maximum temperature yesterday: 32 °F (at 12:00 AM)
Minimum temperature yesterday: 27 °F (at 6:00 PM)
Average temperature yesterday: 29 °F

Past Weeks' High & Low Weather Summary

 TemperatureHumidityPressure
High50 °F (Dec 11, 2:00 PM)100% (Dec 6, 5:00 PM)30.84 "Hg (Dec 6, 5:00 PM)
Low1 °F (Dec 8, 6:00 AM)32% (Dec 5, 2:00 PM)29.32 "Hg (Dec 18, 5:00 PM)
Average29 °F85%30.03 "Hg
* Reported Dec 5 5:00 AM — Dec 20 5:00 AM, Moncton, Weather by CustomWeather, © 2014

Note: Actual official high and low records may vary slightly from our data, if they occured in-between our weather recording intervals... More about our weather records

Advertising

Moncton weather history for previous 24 hours

 ConditionsComfort  
Time TempWeatherWind HumidityBarometerVisibility
5:00 AM
Dec 20
28 °FOvercast.12 mph80%30.16 "Hg15 mi
4:00 AM27 °FOvercast.8 mph80%30.15 "Hg15 mi
3:00 AM27 °FOvercast.12 mph80%30.13 "Hg15 mi
2:00 AM27 °FOvercast.12 mph80%30.11 "Hg15 mi
1:00 AM27 °FOvercast.14 mph80%30.08 "Hg15 mi
12:00 AM28 °FOvercast.16 mph74%30.05 "Hg15 mi
11:00 PM
Dec 19
28 °FOvercast.18 mph80%30.03 "Hg15 mi
10:00 PM30 °FOvercast.13 mph80%29.99 "Hg15 mi
9:00 PM28 °FScattered showers. Overcast.8 mph86%29.97 "Hg15 mi
8:00 PM28 °FOvercast.12 mph86%29.94 "Hg15 mi
7:00 PM28 °FPassing clouds.8 mph86%29.90 "Hg15 mi
6:00 PM27 °FPassing clouds.6 mph93%29.86 "Hg15 mi
5:00 PM28 °FLight snow. Passing clouds.6 mph93%29.84 "Hg12 mi
4:00 PM28 °FLight snow. Mostly cloudy.12 mph93%29.80 "Hg1 mi
3:00 PM28 °FLight snow. Mostly cloudy.10 mph93%29.77 "Hg1 mi
2:00 PM30 °FLight snow. Mostly cloudy.12 mph86%29.74 "Hg1 mi
1:45 PM30 °FLight snow. More clouds than sun.16 mph86%29.73 "Hg1 mi
1:00 PM30 °FLight snow. Low clouds.10 mph86%29.73 "Hg1 mi
12:00 PM28 °FLight snow. Low clouds.9 mph93%29.72 "Hg1 mi
11:00 AM30 °FLight snow. Mostly cloudy.10 mph86%29.71 "Hg5 mi
10:00 AM28 °FLight snow. Overcast.10 mph93%29.69 "Hg6 mi
9:00 AM28 °FLight snow. Mostly cloudy.10 mph93%29.67 "Hg2 mi
8:00 AM28 °FLight snow. Mostly cloudy.12 mph86%29.64 "Hg12 mi
7:00 AM28 °FLight snow. Mostly cloudy.9 mph93%29.62 "Hg7 mi
6:49 AM28 °FLight snow. Overcast.12 mph86%29.61 "Hg4 mi
6:00 AM28 °FLight snow. Mostly cloudy.10 mph93%29.59 "Hg4 mi
5:00 AM28 °FLight snow. Mostly cloudy.12 mph93%29.56 "Hg2 mi
Weather by CustomWeather, © 2014

See weather overviewHow to use our weather pages